Date String (YYYY-MM-DD hh:mm:ss) UTC,Instrument flags,Ambient pressure (hPa),Sample flow (lpm),Bypass flow (lpm),Sample temperature (°C),Ambient temperature (°C),ASC tube jacket temperature (°C),LED temperature (°C),Box temperature (°C),Sample RH (%),Span deviation,Mass concentration (μg/m³),Mass concentration (μg/m³),Mass concentration (μg/m³)
DateTimeUTC,F1_M11,P_M11,Q1_M11,Q2_M11,T1_M11,T2_M11,T3_M11,T4_M11,T5_M11,U1_M11,ZSPAN_M11,X2_M11,X0_M11,X1_M11
2023-05-03 03:00:00,,0828.2,4.99,0.00,29.6,27.9,00.0,38.0,31.0,18.3,0000.0,0005.01,0011.16,0003.67
2023-05-03 03:01:00,,0828.2,5.01,0.00,29.6,27.9,00.0,38.0,31.0,18.2,0000.0,0004.97,0010.48,0003.67
2023-05-03 03:02:00,,0828.2,5.00,0.00,29.6,27.9,00.0,38.0,31.0,18.2,0000.0,0004.97,0010.36,0003.66
2023-05-03 03:03:00,,0828.2,4.99,0.00,29.6,27.9,00.0,38.0,31.0,18.3,0000.0,0004.96,0010.28,0003.67
2023-05-03 03:04:00,,0828.2,5.00,0.00,29.6,27.9,00.0,38.0,30.9,18.2,0000.0,0004.97,0010.35,0003.67
2023-05-03 03:05:00,,0828.2,5.00,0.00,29.6,27.9,00.0,38.0,30.9,18.2,0000.0,0004.97,0010.26,0003.67
2023-05-03 03:06:00,,0828.3,4.99,0.00,29.6,27.9,00.0,38.0,30.9,18.2,0000.0,0004.98,0010.09,0003.67
2023-05-03 03:07:00,,0828.2,5.01,0.00,29.6,27.9,00.0,38.0,31.0,18.1,0000.0,0004.98,0009.83,0003.67
2023-05-03 03:08:00,,0828.2,5.01,0.00,29.6,27.9,00.0,38.0,31.0,18.1,0000.0,0005.00,0009.70,0003.66
2023-05-03 03:09:00,,0828.3,4.99,0.00,29.6,27.9,00.0,38.0,30.9,18.1,0000.0,0004.99,0009.55,0003.67
2023-05-03 03:10:00,,0828.2,5.00,0.00,29.6,27.9,00.0,38.0,30.9,18.0,0000.0,0004.97,0009.56,0003.67
2023-05-03 03:11:00,,0828.2,5.02,0.00,29.6,27.9,00.0,38.0,30.9,18.0,0000.0,0004.95,0009.71,0003.68
2023-05-03 03:12:00,,0828.1,5.00,0.00,29.6,27.9,00.0,38.0,31.0,18.0,0000.0,0004.90,0009.62,0003.69
2023-05-03 03:13:00,,0828.2,4.99,0.00,29.6,27.9,00.0,38.0,31.0,18.0,0000.0,0004.87,0009.57,0003.70
2023-05-03 03:14:00,,0828.2,4.99,0.00,29.6,27.9,00.0,38.0,30.9,17.9,0000.0,0004.84,0009.53,0003.69
2023-05-03 03:15:00,,0828.2,5.00,0.00,29.6,27.9,00.0,38.0,31.0,18.0,0000.0,0004.78,0009.47,0003.67
2023-05-03 03:16:00,,0828.2,5.01,0.00,29.6,27.9,00.0,38.0,31.0,18.1,0000.0,0004.77,0009.52,0003.66
2023-05-03 03:17:00,,0828.2,5.00,0.00,29.5,27.9,00.0,38.0,31.0,18.0,0000.0,0004.73,0009.40,0003.66
2023-05-03 03:18:00,,0828.2,5.00,0.00,29.5,27.9,00.0,38.0,31.0,18.0,0000.0,0004.67,0009.34,0003.65
2023-05-03 03:19:00,,0828.2,5.00,0.00,29.5,27.8,00.0,38.0,31.0,18.0,0000.0,0004.64,0009.36,0003.64
2023-05-03 03:20:00,,0828.3,4.99,0.00,29.6,27.8,00.0,38.0,30.9,18.0,0000.0,0004.64,0009.70,0003.63
2023-05-03 03:21:00,,0828.3,5.00,0.00,29.6,27.9,00.0,38.0,30.9,18.0,0000.0,0004.66,0009.75,0003.63
2023-05-03 03:22:00,,0828.3,5.00,0.00,29.6,27.9,00.0,38.0,31.0,18.0,0000.0,0004.69,0009.73,0003.62
2023-05-03 03:23:00,,0828.2,5.01,0.00,29.5,27.9,00.0,38.0,31.0,18.0,0000.0,0004.72,0011.12,0003.60
2023-05-03 03:24:00,,0828.2,4.99,0.00,29.6,27.9,00.0,38.0,31.0,18.0,0000.0,0004.71,0011.10,0003.59
2023-05-03 03:25:00,,0828.2,5.00,0.00,29.6,27.9,00.0,38.0,31.0,18.0,0000.0,0004.71,0011.05,0003.60
2023-05-03 03:26:00,,0828.2,5.00,0.00,29.6,27.9,00.0,38.0,31.0,18.0,0000.0,0004.78,0011.04,0003.60
2023-05-03 03:27:00,,0828.2,4.99,0.00,29.6,27.9,00.0,38.0,31.0,17.9,0000.0,0004.83,0011.09,0003.60
2023-05-03 03:28:00,,0828.2,5.01,0.00,29.6,27.9,00.0,38.0,30.9,17.9,0000.0,0004.90,0011.35,0003.61
2023-05-03 03:29:00,,0828.2,5.00,0.00,29.6,27.9,00.0,38.0,30.9,17.9,0000.0,0004.93,0011.38,0003.61
2023-05-03 03:30:00,,0828.2,5.00,0.00,29.6,27.9,00.0,38.0,31.0,17.8,0000.0,0004.95,0011.34,0003.62
2023-05-03 03:31:00,,0828.2,5.00,0.00,29.6,27.9,00.0,38.0,31.0,17.8,0000.0,0004.96,0011.08,0003.63
2023-05-03 03:32:00,,0828.2,5.00,0.00,29.6,27.9,00.0,38.0,31.0,17.8,0000.0,0005.01,0011.15,0003.63
2023-05-03 03:33:00,,0828.2,5.00,0.00,29.6,28.0,00.0,38.0,31.0,17.8,0000.0,0004.98,0011.06,0003.64
2023-05-03 03:34:00,,0828.2,5.00,0.00,29.6,28.0,00.0,38.0,31.0,17.8,0000.0,0004.96,0009.58,0003.65
2023-05-03 03:35:00,,0828.2,5.02,0.00,29.6,28.0,00.0,38.0,31.0,17.8,0000.0,0004.95,0009.55,0003.65
2023-05-03 03:36:00,,0828.2,5.00,0.00,29.6,28.0,00.0,38.0,31.0,17.8,0000.0,0005.00,0009.72,0003.66
2023-05-03 03:37:00,,0828.2,5.00,0.00,29.6,28.0,00.0,38.0,31.0,17.7,0000.0,0005.01,0009.88,0003.67
2023-05-03 03:38:00,,0828.3,5.00,0.00,29.6,28.0,00.0,38.0,31.0,17.7,0000.0,0004.96,0010.28,0003.67
2023-05-03 03:39:00,,0828.3,5.01,0.00,29.6,28.0,00.0,38.0,31.0,17.8,0000.0,0004.91,0010.35,0003.67
2023-05-03 03:40:00,,0828.3,5.00,0.00,29.6,28.0,00.0,38.0,31.0,17.8,0000.0,0004.91,0010.29,0003.68
2023-05-03 03:41:00,,0828.3,5.00,0.00,29.6,28.0,00.0,38.0,31.0,17.8,0000.0,0004.93,0010.33,0003.69
2023-05-03 03:42:00,,0828.3,5.00,0.00,29.6,28.1,00.0,38.0,31.1,17.9,0000.0,0004.95,0010.37,0003.68
2023-05-03 03:43:00,,0828.4,4.99,0.00,29.6,28.1,00.0,38.0,31.1,17.9,0000.0,0004.93,0010.34,0003.68
2023-05-03 03:44:00,,0828.4,5.00,0.00,29.6,28.1,00.0,38.0,31.2,17.8,0000.0,0004.93,0010.38,0003.69
2023-05-03 03:45:00,,0828.3,5.01,0.00,29.6,28.0,00.0,38.0,31.2,17.8,0000.0,0004.96,0010.51,0003.68
2023-05-03 03:46:00,,0828.3,5.01,0.00,29.6,28.0,00.0,38.0,31.1,17.7,0000.0,0005.00,0010.57,0003.67
2023-05-03 03:47:00,,0828.3,5.00,0.00,29.6,28.0,00.0,38.0,31.1,17.7,0000.0,0005.00,0010.65,0003.66
2023-05-03 03:48:00,,0828.3,5.00,0.00,29.6,28.0,00.0,38.0,31.1,17.6,0000.0,0004.92,0010.45,0003.66
2023-05-03 03:49:00,,0828.3,4.99,0.00,29.6,28.0,00.0,38.0,31.0,17.4,0000.0,0004.92,0010.10,0003.66
2023-05-03 03:50:00,,0828.3,5.00,0.00,29.6,28.0,00.0,38.0,31.1,17.3,0000.0,0004.97,0009.82,0003.67
2023-05-03 03:51:00,,0828.2,5.00,0.00,29.6,28.1,00.0,38.0,31.1,17.4,0000.0,0004.98,0009.74,0003.67
2023-05-03 03:52:00,,0828.2,5.01,0.00,29.6,28.1,00.0,38.0,31.1,17.4,0000.0,0005.03,0009.84,0003.66
2023-05-03 03:53:00,,0828.2,5.00,0.00,29.6,28.1,00.0,38.0,31.0,17.5,0000.0,0005.02,0009.84,0003.68
2023-05-03 03:54:00,,0828.3,5.00,0.00,29.6,28.1,00.0,38.0,31.1,17.5,0000.0,0005.04,0010.06,0003.69
2023-05-03 03:55:00,,0828.3,5.00,0.00,29.6,28.1,00.0,38.0,31.1,17.5,0000.0,0005.07,0010.60,0003.71
2023-05-03 03:56:00,,0828.3,4.99,0.00,29.6,28.1,00.0,38.0,31.1,17.1,0000.0,0005.11,0011.33,0003.74
2023-05-03 03:57:00,,0828.3,5.00,0.00,29.6,28.1,00.0,38.0,31.1,17.1,0000.0,0005.14,0011.45,0003.77
2023-05-03 03:58:00,,0828.3,5.00,0.00,29.6,28.1,00.0,38.0,31.1,17.1,0000.0,0005.15,0011.41,0003.80
2023-05-03 03:59:00,,0828.3,5.00,0.00,29.6,28.1,00.0,38.0,31.1,17.0,0000.0,0005.23,0011.47,0003.81
